Location: Sternwarte Hubelmatt
(47.0367°N, 8.3053°E)
Time: 06:28:39
(UTC+01:00)

UKube-1 - Visible Passes

Search period start: 16 March 2026 00:00
Search period end: 26 March 2026 00:00
Orbit: 528 x 533 km, 98.4° (Epoch: 15 March)

Date Brightness Start Highest point End Pass type
(mag) Time Alt. Az. Time Alt. Az. Time Alt. Az.
16 Mar ? 05:35:42 10° NNE 05:39:25 47° E 05:43:08 10° S visible
17 Mar ? 05:25:27 10° NNE 05:29:00 35° E 05:32:33 10° SSE visible
18 Mar ? 05:15:14 10° NE 05:18:33 27° E 05:21:50 10° SSE visible
19 Mar ? 05:05:06 10° NE 05:08:04 21° E 05:11:01 10° SE visible
20 Mar ? 04:55:05 10° NE 04:57:32 16° E 04:59:59 10° SE visible
21 Mar ? 04:45:20 10° ENE 04:47:00 12° E 04:48:38 10° ESE visible
24 Mar ? 05:46:23 10° NNE 05:50:11 57° ESE 05:53:57 10° S visible
25 Mar ? 05:35:58 10° NNE 05:39:38 42° E 05:43:17 10° S visible
